This is the latest recevied weather packets stored in our database for station/object N0FDH. If no packets are shown the sender has not sent any weather packets the latest 10 day(s).
| Time | Temp. | Humidity | Pressure | Rain* | Wind** | Luminosity | Snow |
|---|---|---|---|---|---|---|---|
| 1777525779 | 0.56° C | 75% | 1017.4 hPa | 0 mm | - | 0 W/m² | - |
| 1777525477 | 0.56° C | 75% | 1017.5 hPa | 0 mm | - | 0 W/m² | - |
| 1777525173 | 0.56° C | 74% | 1017.4 hPa | 0 mm | - | 0 W/m² | - |
| 1777524869 | 0.56° C | 73% | 1017.3 hPa | 0 mm | - | 0 W/m² | - |
| 1777524567 | 0.56° C | 75% | 1017.5 hPa | 0 mm | - | 0 W/m² | - |
| 1777524264 | 1.11° C | 77% | 1017.3 hPa | 0 mm | - | 0 W/m² | - |
| 1777523961 | 1.11° C | 74% | 1017.2 hPa | 0 mm | - | 0 W/m² | - |
| 1777523657 | 1.11° C | 70% | 1017.4 hPa | 0 mm | - | 0 W/m² | - |
| 1777523353 | 1.67° C | 69% | 1017.2 hPa | 0 mm | - | 0 W/m² | - |
| 1777523049 | 1.67° C | 68% | 1017.2 hPa | 0 mm | - | 0 W/m² | - |
| 1777522746 | 1.67° C | 70% | 1017.3 hPa | 0 mm | - | 0 W/m² | - |
| 1777522442 | 1.67° C | 69% | 1017.4 hPa | 0 mm | - | 0 W/m² | - |
| 1777522140 | 1.67° C | 68% | 1017.3 hPa | 0 mm | - | 0 W/m² | - |
| 1777521836 | 1.67° C | 67% | 1017.3 hPa | 0 mm | - | 0 W/m² | - |
| 1777521532 | 1.67° C | 67% | 1017.3 hPa | 0 mm | - | 0 W/m² | - |
| 1777521230 | 2.22° C | 66% | 1017.2 hPa | 0 mm | - | 0 W/m² | - |
| 1777520928 | 2.22° C | 66% | 1017.3 hPa | 0 mm | - | 0 W/m² | - |
| 1777520624 | 2.22° C | 67% | 1017.4 hPa | 0 mm | - | 0 W/m² | - |
| 1777520320 | 2.22° C | 65% | 1017.2 hPa | 0 mm | - | 0 W/m² | - |
| 1777520019 | 2.22° C | 66% | 1017.3 hPa | 0 mm | - | 0 W/m² | - |
| 1777519715 | 2.22° C | 65% | 1017.4 hPa | 0 mm | - | 0 W/m² | - |
| 1777519412 | 2.22° C | 65% | 1017.2 hPa | 0 mm | - | 0 W/m² | - |
| 1777519109 | 2.78° C | 64% | 1017.1 hPa | 0 mm | - | 0 W/m² | - |
| 1777518804 | 2.78° C | 64% | 1017.2 hPa | 0 mm | - | 0 W/m² | - |
| 1777518501 | 2.78° C | 65% | 1017.1 hPa | 0 mm | - | 0 W/m² | - |
* Rain latest hour (hover to see other rain measurements)
** Current wind speed in m/s (hover to see current wind gust speed)